Starlink 5161

operational
NORAD ID: 54163 Int'l Des: 2022-141 Owner: SPXS Country: US Constellation: starlink
LEOCIRCULAR

About Starlink 5161

Description loading...

Live Position

Loading 3D Globe...

Upcoming Passes

Altitude History

Altitude vs Time

uPlot chart will show altitude changes over time

Two-Line Element Set

1 54163U 22141G 25303.78250770 -.00000242 00000-0 28750-5 0 9994
2 54163 53.2165 227.4688 0001524 83.2861 276.8304 15.08844095166243
Epoch: Oct 30, 2025 • Age: 6 hours

Current Status

Altitude 559.3 km
Velocity 7.58 km/s
Sub-Earth Point -53.06°S, 77.5°E
Launch Date Oct 28, 2022
Age 3 years
Type internet

Technical Details

Classification Payload
Mass 305.00 kg
Dry Mass 290.00 kg
Total Mass 305.00 kg
Length 0.20 m
Diameter 2.80 m
Span 9.00 m
Shape Box + pan
Manufacturer SPXS
Bus Type Starlink
Phase Status In Orbit
Owner/State SPXS/US

Large Constellations

Loading constellations...